GEFSNGP_500_meanwind_132.txt.gz
Wind_Speed
14 14 13 13 13 13 13 13 14 15 17 18 20 21 22 23 24 25 26 26 27 27 27 27 27 27 26 26 26 26 26 26 27 27 27 27 26 26 25 25 24 24 24 24
13 13 13 13 12 13 14 14 16 17 19 19 21 22 22 23 24 26 27 27 27 27 26 26 26 26 26 26 26 25 25 25 26 26 25 24 24 23 23 22 22 21 21 21
12 12 12 12 12 13 13 14 16 17 19 19 20 21 23 24 25 26 26 26 26 25 25 25 25 24 24 24 24 23 23 23 23 22 22 22 21 21 21 20 20 19 19 19
12 12 12 11 11 11 12 14 15 17 18 19 20 22 23 24 25 25 25 25 24 24 23 23 23 22 22 22 22 22 21 21 20 20 19 19 18 18 18 17 17 16 17 17
11 11 11 11 11 12 13 14 16 17 18 20 21 23 23 24 24 24 23 23 22 21 21 21 21 21 20 20 19 19 18 18 18 17 16 15 14 14 14 14 14 14 14 15
9 10 10 12 12 12 13 15 16 17 19 20 22 22 23 23 22 22 21 20 20 19 19 19 19 18 17 16 16 16 15 14 13 12 11 11 11 11 11 11 11 11 11 11
9 9 10 10 10 11 13 15 16 17 19 20 21 22 22 22 21 20 18 18 18 17 17 16 16 14 14 13 13 12 12 11 10 9 8 8 8 8 9 9 8 8 9 10
9 9 10 10 10 11 13 14 15 17 18 20 21 20 20 19 18 17 16 16 15 14 13 13 12 11 11 10 10 9 8 7 7 6 6 6 6 6 6 6 5 6 6 6
9 10 10 10 10 11 12 14 15 16 18 19 19 18 17 16 16 15 14 14 13 12 10 10 10 9 9 8 8 7 6 6 6 5 4 4 3 4 4 3 3 3 3 3
9 9 10 10 10 11 12 13 15 16 17 17 17 16 15 14 14 13 13 12 10 9 7 7 7 7 7 7 6 7 6 5 5 4 4 3 3 2 1 0 1 0 0 0
7 8 9 9 10 10 11 13 14 15 16 15 14 14 13 12 12 12 11 10 9 8 7 7 7 7 7 7 7 7 6 6 6 6 5 5 5 5 5 4 4 4 4 4
7 7 8 8 9 10 12 13 14 15 14 14 13 12 11 11 11 10 10 9 8 8 8 7 7 7 7 8 8 8 8 8 8 8 8 8 9 9 9 8 8 8 7 7
7 7 7 8 9 10 11 12 13 14 13 12 11 11 11 10 10 9 9 8 8 8 8 8 8 8 8 9 10 10 11 11 11 11 11 11 12 12 11 11 11 11 10 10
7 7 7 8 8 9 10 11 12 11 11 10 10 10 10 10 9 9 8 8 8 9 9 9 9 9 10 10 11 12 12 13 13 13 13 13 13 13 12 12 12 12 12 13
8 8 7 8 8 8 9 10 10 10 9 9 9 8 8 8 8 8 8 8 9 9 9 10 10 11 11 12 12 13 13 14 14 14 14 14 14 13 13 13 13 13 14 14
8 7 7 7 7 8 8 9 9 8 8 8 8 8 7 7 8 8 8 9 9 10 10 11 12 12 12 13 13 14 14 15 15 15 15 14 15 14 14 14 15 15 15 15
8 7 6 6 6 7 7 7 7 7 7 7 7 7 7 7 7 8 8 9 10 10 10 11 12 12 13 13 14 14 15 15 15 16 16 16 16 16 16 16 16 16 15 15
8 7 7 6 5 5 5 6 6 6 6 6 6 6 6 6 7 7 8 9 10 10 10 11 12 12 13 14 14 15 16 16 16 16 16 16 16 16 17 17 16 16 15 15
9 8 7 6 5 4 4 4 4 5 5 5 6 6 6 6 7 7 8 9 10 10 11 11 12 12 12 13 14 14 15 15 15 15 16 16 16 16 16 16 16 15 15 14
9 9 7 6 5 4 4 3 3 3 4 4 4 4 5 6 7 7 8 8 9 9 10 11 11 11 11 12 12 13 14 14 14 14 15 15 15 15 15 15 14 14 14 13
10 9 9 8 7 5 4 3 3 2 2 3 3 3 4 5 6 6 7 7 8 8 9 10 10 10 11 11 11 12 12 13 13 14 14 13 14 13 13 13 13 13 13 12
11 10 10 9 9 7 6 5 3 3 2 1 1 2 3 4 4 5 6 7 7 8 8 9 9 9 10 10 10 11 11 11 12 12 12 12 12 12 12 12 12 12 12 11
12 11 11 11 10 9 7 6 4 3 2 2 2 2 2 3 3 4 4 5 6 7 7 7 8 8 8 8 9 9 9 10 10 10 10 10 10 10 10 10 10 10 10 10
14 13 13 12 12 11 9 7 6 5 4 4 4 3 3 3 3 3 3 4 5 5 5 5 6 6 6 6 7 7 8 8 8 8 8 8 8 8 9 9 9 9 9 9
15 15 15 14 14 13 12 10 8 7 6 6 6 5 5 4 4 4 4 4 4 4 4 4 4 4 5 5 5 6 6 6 6 6 6 6 6 6 6 7 7 7 7 8
17 17 17 16 16 15 14 12 11 10 9 8 8 7 7 6 6 5 5 4 4 4 4 4 4 4 4 4 4 4 4 4 4 4 4 4 4 4 5 5 6 6 7 8
20 19 18 18 17 17 16 15 14 13 12 10 10 10 9 9 8 7 7 6 5 5 4 4 4 3 3 3 3 2 2 2 2 2 2 2 3 3 4 5 6 7 7 8

GEFSNGP_500_meanwind_138.txt.gz
Wind_Speed
13 12 13 12 12 13 15 15 15 18 22 24 25 25 25 26 27 28 28 29 30 30 29 29 29 29 29 28 27 27 26 27 26 26 26 26 26 26 26 26 25 25 24 24
13 12 12 12 12 14 14 15 17 20 23 24 24 26 27 27 27 27 28 29 29 29 29 28 28 28 28 27 26 26 26 26 25 25 25 25 25 24 24 23 22 22 22 22
10 10 11 12 13 12 13 16 17 20 22 23 25 27 26 26 27 28 28 27 27 27 27 26 27 26 26 25 25 25 25 25 24 24 24 23 21 21 21 20 20 19 19 19
8 9 11 11 12 13 14 15 17 19 21 23 25 25 25 26 27 27 26 25 25 25 25 26 25 25 25 24 23 23 22 22 22 21 20 20 19 19 19 18 17 17 16 16
7 8 10 10 12 15 16 17 17 19 21 23 24 25 25 25 25 25 24 24 23 24 23 23 23 23 22 21 21 21 20 19 19 18 17 17 16 15 15 15 14 13 13 13
8 9 10 12 12 14 15 16 17 19 22 23 23 24 24 24 23 23 22 22 22 22 21 20 19 19 18 18 17 17 16 16 15 14 14 14 13 12 12 13 12 11 11 11
8 9 10 11 12 13 15 17 17 18 20 22 23 23 23 22 21 22 22 21 20 19 18 17 17 17 16 16 15 15 14 14 13 13 13 12 11 11 10 9 9 9 9 9
9 11 11 11 12 13 15 17 17 18 19 21 21 21 21 20 20 20 20 19 17 16 15 14 14 14 13 13 13 12 12 11 11 11 11 10 9 8 7 7 7 7 7 7
10 10 12 13 13 13 15 16 17 18 19 20 20 20 19 19 19 19 18 17 15 13 13 12 11 11 11 11 10 10 10 9 9 8 8 7 7 6 5 5 5 5 5 5
10 10 11 13 13 14 15 16 17 18 18 19 18 18 18 18 17 16 15 14 12 12 11 11 10 10 10 9 9 9 8 7 7 6 6 6 5 5 5 4 4 5 5 5
10 10 12 11 12 14 15 15 16 17 17 17 17 16 16 16 15 13 13 12 11 11 11 10 10 9 9 9 9 8 8 7 7 6 6 6 5 5 5 5 5 5 6 6
10 11 11 12 12 13 14 15 15 16 16 15 15 14 13 13 13 12 12 11 10 10 9 9 9 9 8 9 9 9 9 8 8 7 7 7 7 7 7 6 7 7 7 7
11 11 12 12 12 13 14 14 14 15 15 13 13 12 12 12 11 11 11 10 9 9 8 8 8 9 9 10 10 10 10 10 10 9 9 9 9 9 9 9 9 10 10 10
10 11 12 12 12 12 12 12 13 13 13 13 13 12 12 11 10 10 10 9 9 8 8 9 9 10 10 11 11 11 11 11 11 11 10 10 11 11 11 11 12 13 13 13
10 10 11 11 11 11 11 11 11 12 12 12 11 11 10 9 10 10 10 9 9 9 9 9 10 10 11 11 11 12 12 12 12 12 12 12 13 13 13 13 14 14 15 15
10 10 9 9 9 9 10 10 10 10 10 10 10 9 9 9 9 9 9 9 9 8 9 9 9 10 10 11 11 11 12 13 13 13 13 14 14 14 14 14 14 15 15 15
10 9 9 9 9 9 9 9 9 9 9 8 8 7 7 8 8 8 8 8 8 9 9 9 9 9 10 10 11 12 12 13 13 13 14 14 14 14 14 14 15 15 15 15
9 8 8 9 9 8 8 8 8 7 7 6 6 6 7 7 7 7 7 7 7 8 8 8 8 9 9 9 10 11 12 13 13 13 14 14 14 14 14 14 15 15 14 15
8 8 8 8 8 7 7 7 6 5 5 4 5 5 5 6 6 6 6 6 6 6 7 7 8 8 9 9 9 10 11 12 12 13 14 14 14 14 14 14 14 13 14 14
9 8 8 8 8 8 7 6 5 5 4 3 3 4 4 5 5 5 6 6 6 6 6 7 7 8 8 8 9 9 10 11 11 12 12 13 13 13 13 13 12 12 13 13
9 9 9 9 8 7 6 6 5 4 4 3 3 3 3 4 4 4 5 5 5 5 5 6 6 7 7 7 8 8 9 9 10 11 11 11 11 12 12 12 12 12 12 12
10 9 9 8 8 8 7 6 5 4 4 3 3 2 2 3 3 3 3 4 3 3 3 4 5 5 6 6 6 7 7 8 8 9 9 9 10 10 10 10 11 11 11 11
10 9 9 8 8 8 7 6 6 5 5 4 3 3 2 2 2 3 3 3 3 3 2 3 3 4 4 4 4 5 6 6 6 7 7 8 8 8 8 9 9 9 9 9
11 11 10 10 9 8 8 7 7 6 6 5 4 4 4 3 3 2 2 2 2 1 1 2 2 2 2 3 3 3 4 4 4 5 5 5 6 6 6 7 7 7 8 8
13 13 12 11 10 9 9 8 8 7 7 7 6 6 5 5 4 4 3 2 2 1 1 1 0 0 1 1 1 1 2 2 2 2 3 3 3 4 4 4 5 6 6 7
15 14 14 13 12 11 10 10 9 9 9 9 9 8 8 7 6 5 5 5 4 4 3 3 2 2 2 1 1 1 1 0 0 1 1 2 2 3 3 4 5 5 7 8
16 16 15 15 14 14 13 12 11 11 11 10 11 10 10 9 8 8 7 7 6 6 5 5 4 4 4 4 3 3 3 3 3 3 3 3 4 4 4 5 6 7 8 9

GEFSNGP_500_meanwind_144.txt.gz
Wind_Speed
11 12 13 14 16 16 16 17 17 17 18 18 19 20 22 24 24 23 22 22 23 24 25 24 24 24 25 25 25 24 24 23 23 23 23 23 23 23 22 21 21 21 21 21
10 10 11 12 13 14 14 15 16 17 17 17 19 21 21 23 24 23 22 23 24 24 23 23 23 23 24 24 23 22 22 21 20 20 20 20 20 20 19 19 19 19 20 20
10 9 10 10 10 11 13 13 14 16 16 18 20 21 20 22 22 22 23 24 24 23 23 23 22 22 22 21 21 20 19 18 18 18 18 18 18 18 18 19 19 19 18 18
9 9 10 9 9 10 11 13 13 15 17 18 19 19 20 22 23 23 23 23 22 22 21 20 19 19 19 18 18 17 16 16 17 17 16 17 16 17 17 17 16 15 15 15
8 9 8 8 8 10 10 11 12 14 16 18 18 19 20 20 21 21 21 20 19 19 18 17 15 15 15 15 15 15 15 14 15 15 15 15 15 16 15 14 13 13 12 11
6 7 7 7 8 8 10 11 12 14 16 17 18 19 19 19 19 20 19 17 16 16 15 13 13 13 13 13 13 12 12 13 13 13 14 14 14 13 13 13 12 11 10 9
4 5 5 6 8 9 11 12 14 15 16 16 17 17 16 17 17 16 15 15 15 14 13 12 11 11 12 12 12 11 11 11 12 12 12 13 12 11 11 10 9 8 7 7
4 5 6 7 8 9 11 12 14 15 15 16 16 15 16 16 16 14 14 14 14 13 12 11 10 9 10 10 10 10 10 10 10 10 10 10 9 9 8 7 6 6 5 5
5 6 7 8 8 9 11 12 13 14 15 15 16 16 16 15 15 13 13 13 12 12 10 9 9 9 10 9 9 9 9 9 9 8 8 8 7 6 6 6 6 6 6 6
6 7 8 8 9 10 12 12 13 13 13 14 14 15 15 14 13 12 11 11 10 10 9 9 9 9 9 8 7 8 8 8 8 7 7 7 7 7 7 7 7 7 7 8
7 8 7 7 9 10 11 12 13 13 12 13 13 13 12 12 11 10 10 9 9 8 8 9 9 9 9 9 9 8 8 8 8 8 8 8 8 9 8 9 9 8 9 9
7 7 8 8 8 9 10 10 11 11 12 12 12 11 10 9 9 9 9 9 9 8 9 9 9 9 10 9 9 10 9 9 9 10 10 11 11 11 11 11 10 10 10 10
6 6 7 8 8 8 9 10 10 10 10 10 10 9 9 8 7 8 8 9 9 9 10 10 10 10 10 10 10 10 11 11 11 11 12 12 13 13 13 13 13 12 12 12
6 7 7 8 8 8 8 9 9 8 9 9 9 9 9 8 7 7 8 8 9 10 10 11 11 11 11 11 11 11 11 12 12 12 12 12 13 13 13 14 14 14 14 14
7 7 8 8 8 8 8 8 8 8 9 8 8 8 8 7 7 7 7 8 8 9 10 10 10 10 11 11 11 11 12 12 12 12 12 12 13 13 14 14 15 15 15 16
7 7 7 7 7 7 7 7 6 7 7 7 7 7 7 7 7 7 7 8 8 9 9 9 10 10 10 11 11 11 11 11 12 12 12 13 13 14 14 14 15 16 16 16
7 7 7 7 7 6 6 6 5 5 5 5 6 6 6 6 7 7 7 8 8 8 9 9 9 9 10 10 10 11 11 11 12 12 12 13 13 13 14 14 15 15 15 15
7 7 6 6 6 6 6 5 4 3 3 4 4 5 5 6 6 6 7 7 7 7 7 8 8 8 9 9 10 10 11 11 12 12 12 13 13 13 14 14 14 14 14 14
7 7 6 6 5 5 5 4 3 3 2 2 3 4 4 5 5 6 6 6 7 7 7 7 8 8 8 9 9 10 10 11 11 12 12 12 12 13 13 13 13 13 13 13
6 6 6 6 5 5 5 4 3 3 2 1 1 2 2 3 4 5 5 6 6 6 6 6 7 7 8 8 9 9 9 9 10 10 11 11 11 11 11 11 11 11 11 11
6 6 5 5 5 5 4 3 2 2 1 0 0 0 1 2 2 3 4 4 5 5 5 5 6 6 6 7 7 7 7 8 8 8 9 9 8 8 9 9 9 9 9 9
7 6 6 5 5 5 4 3 2 1 1 1 1 1 1 1 1 1 2 2 3 3 4 4 5 5 5 5 5 5 5 6 6 6 6 6 6 6 6 7 7 7 7 7
7 7 6 6 5 4 4 3 2 2 2 2 3 3 2 2 2 2 1 1 1 1 2 2 3 3 4 4 4 4 3 3 3 4 4 4 4 4 4 4 4 5 5 5
7 6 6 6 5 4 4 4 3 3 4 4 4 4 4 4 4 3 3 2 2 1 0 0 1 2 2 2 2 2 1 1 1 1 1 2 2 2 2 2 2 2 2 2
7 7 7 7 6 6 5 5 5 5 5 5 5 6 5 5 5 4 4 4 3 3 3 2 2 1 1 1 1 1 1 1 1 1 1 1 1 1 1 1 1 2 2 3
9 9 9 8 8 7 7 7 7 7 6 7 7 7 7 7 6 6 6 6 6 5 5 5 5 4 4 4 3 3 3 4 4 4 4 4 4 4 4 4 4 5 5 6
11 11 11 10 10 10 9 9 9 9 9 9 9 9 9 8 8 8 8 8 8 8 8 8 7 7 6 6 7 7 6 6 6 6 6 7 7 7 8 8 8 8 8 9

GEFSNGP_500_meanwind_150.txt.gz
Wind_Speed
11 11 12 12 13 13 14 15 16 17 17 18 18 19 19 20 21 22 22 22 22 23 22 21 21 23 23 24 23 22 22 22 22 22 23 23 22 22 22 21 21 21 21 21
9 9 9 10 10 12 13 14 15 16 17 18 18 18 19 20 21 22 22 22 21 21 21 20 20 20 20 20 20 20 19 20 20 20 20 20 20 19 19 19 19 19 19 19
8 8 9 9 10 11 12 12 13 15 15 16 17 18 19 20 21 21 22 21 21 21 19 18 18 17 17 17 17 17 17 18 17 17 18 18 17 17 17 17 17 17 17 17
7 8 8 8 9 11 11 12 13 14 14 16 16 17 18 19 20 21 21 20 19 18 17 16 16 15 15 15 15 15 15 15 15 16 16 16 15 15 15 15 15 15 15 15
7 8 8 8 8 9 10 11 12 13 14 15 16 17 17 18 19 19 18 18 17 16 14 14 14 14 14 14 13 13 14 14 14 14 14 14 14 13 14 14 13 13 13 13
7 8 8 8 9 9 11 12 13 14 15 15 15 16 17 17 17 16 17 16 15 14 13 13 12 11 11 12 11 11 11 11 12 12 12 12 13 13 13 12 12 11 11 11
7 7 8 8 9 9 11 12 13 14 14 15 15 15 15 15 15 16 15 15 13 12 11 10 10 10 10 9 9 9 9 10 10 10 10 11 11 11 11 10 9 9 8 8
7 8 8 8 8 9 10 12 13 13 14 14 14 14 14 14 14 14 14 13 11 10 9 9 9 9 8 8 8 8 8 8 8 9 10 10 10 9 8 7 7 7 7 7
7 7 8 8 9 9 11 12 12 12 13 13 14 14 13 13 13 12 12 10 8 8 8 7 7 7 7 7 7 7 7 7 8 8 9 9 8 8 8 7 7 6 7 7
7 7 8 8 9 10 11 11 12 12 12 12 13 12 12 11 11 10 9 9 7 7 6 6 6 6 6 6 7 7 7 6 6 7 8 8 8 7 8 8 8 8 8 8
7 8 8 9 9 10 10 10 10 11 10 10 10 10 10 9 8 8 8 7 6 5 5 5 6 6 5 7 7 7 7 7 7 7 8 9 9 9 9 9 9 9 9 9
6 7 7 8 8 9 9 9 9 9 10 9 10 9 8 7 6 6 6 6 6 5 6 6 6 6 6 7 7 8 8 8 8 8 9 10 10 10 10 10 10 10 11 11
6 6 6 7 7 8 8 8 8 9 9 9 9 8 7 7 6 5 6 6 6 6 7 7 7 7 7 8 8 8 8 8 9 9 10 10 10 10 11 11 11 11 11 11
5 6 6 7 7 7 7 7 7 7 8 8 8 8 7 6 5 5 5 6 6 6 7 7 7 7 8 8 8 8 8 8 9 9 9 10 10 10 10 11 11 12 12 12
6 6 6 6 6 6 6 6 6 6 6 6 7 7 7 6 6 6 5 5 6 6 7 7 7 7 8 8 8 7 8 8 8 8 9 10 10 11 11 11 11 12 12 11
5 5 6 5 6 6 6 6 5 5 5 5 5 6 6 6 6 6 5 5 5 6 6 6 6 7 7 7 7 7 8 8 8 9 9 10 10 10 10 11 11 11 11 11
5 5 5 5 6 6 6 5 5 5 5 4 4 4 5 5 5 6 5 4 4 5 5 5 6 6 7 7 7 8 8 8 9 9 10 10 10 11 11 10 10 10 10 10
5 5 6 6 6 5 5 4 4 4 4 4 3 3 4 5 5 5 5 4 4 3 4 4 5 6 6 6 7 7 8 8 8 8 9 9 10 10 10 10 10 10 9 9
6 6 6 6 5 4 4 3 3 3 4 3 2 3 3 4 5 4 4 4 4 4 4 4 5 5 6 6 6 6 7 7 7 7 7 7 8 8 8 8 8 8 8 8
5 5 6 5 5 4 3 3 3 3 3 3 2 2 2 3 4 4 4 4 4 3 3 3 3 4 4 4 5 5 5 5 5 5 5 5 6 6 6 6 6 6 6 6
5 5 5 5 4 4 4 3 3 3 4 3 2 2 3 3 3 3 3 3 3 3 3 2 2 2 2 3 3 3 3 3 3 3 3 3 3 3 3 4 4 3 4 4
5 5 5 4 4 4 4 4 4 4 4 3 3 3 3 4 3 3 3 3 3 3 3 3 2 2 2 2 2 1 1 1 1 1 1 1 1 1 1 2 2 2 2 2
6 5 4 4 4 4 4 4 5 5 5 4 4 4 4 5 5 5 4 4 4 4 4 4 3 3 3 3 3 3 3 3 3 3 3 3 3 3 3 3 3 3 3 3
6 5 5 5 5 5 5 5 5 5 5 5 5 5 5 5 5 5 5 5 5 5 5 5 4 4 4 4 4 5 5 5 5 5 5 5 5 5 5 5 5 6 6 6
7 7 7 6 6 6 6 6 6 6 6 6 6 6 6 6 6 6 6 6 6 6 6 6 7 7 6 6 6 6 6 6 7 7 7 7 7 7 8 8 8 8 9 9
8 8 8 7 7 7 7 7 7 7 7 7 7 7 7 7 7 7 7 7 7 7 8 8 8 8 8 9 9 9 9 9 9 9 10 10 10 10 11 11 11 11 12 12
10 9 9 9 9 9 9 8 8 8 8 8 8 8 8 8 8 8 8 8 8 8 9 9 9 10 10 10 11 11 11 11 12 12 12 12 12 13 13 14 14 15 15 15

GEFSNGP_500_meanwind_156.txt.gz
Wind_Speed
11 11 11 11 12 12 11 11 12 13 14 15 14 15 15 16 17 17 18 19 20 21 21 21 21 21 22 22 22 21 21 21 21 21 20 20 20 19 19 18 18 18 18 19
9 9 9 10 10 10 10 10 11 12 14 14 14 15 15 16 16 17 18 19 20 20 20 20 20 20 20 20 20 20 20 19 18 18 18 17 17 16 16 16 16 16 15 16
8 8 8 9 9 9 10 10 11 13 13 14 14 15 15 16 17 18 18 19 19 19 20 20 20 20 19 18 18 17 16 15 15 15 15 15 15 14 14 14 14 14 14 14
7 7 8 9 9 9 10 11 12 13 13 14 14 15 16 16 17 18 18 18 18 18 18 18 17 16 16 16 16 15 14 14 14 14 14 14 13 12 12 12 12 13 12 12
7 8 9 9 9 10 11 12 12 12 13 13 14 14 15 15 16 16 16 17 17 17 16 15 15 15 15 14 13 13 13 13 13 13 13 12 12 10 9 10 11 10 11 11
7 8 9 9 9 9 10 10 10 11 12 12 13 14 14 14 14 15 15 15 14 14 14 13 12 13 12 11 12 12 11 11 11 11 11 11 10 8 8 8 9 9 10 9
7 8 9 9 9 9 9 10 10 11 11 13 13 13 13 13 13 13 13 13 13 12 11 10 10 10 10 9 10 10 9 9 9 10 10 9 7 6 6 7 7 8 8 8
7 8 9 9 9 9 9 9 10 11 12 12 12 11 12 12 11 11 11 11 10 9 8 8 8 8 8 8 8 7 7 7 7 8 7 6 6 6 6 7 7 6 7 7
7 8 8 9 9 9 9 9 9 10 10 11 11 11 11 11 10 10 9 8 8 7 6 6 7 7 6 6 5 6 5 6 6 6 6 5 5 6 6 6 6 6 6 7
6 7 7 8 8 8 8 8 8 9 9 9 9 10 9 9 8 8 7 6 5 5 4 5 6 6 5 5 5 4 4 5 5 6 7 7 6 6 6 6 6 6 6 7
5 6 7 7 6 6 6 7 8 8 8 8 9 9 8 6 6 5 4 4 4 4 4 5 6 6 5 5 4 3 4 5 6 6 7 7 7 7 7 7 7 7 7 7
4 5 5 5 5 6 6 6 7 7 7 7 8 7 6 5 4 3 3 3 3 3 4 5 5 4 4 3 3 3 4 5 5 6 7 8 8 9 9 8 8 8 8 9
4 4 4 4 4 5 5 6 6 6 6 6 6 6 5 4 3 2 2 3 3 3 4 5 5 4 4 4 4 4 5 5 6 6 7 8 8 9 9 9 10 10 10 10
3 3 3 4 4 4 5 5 5 5 5 5 5 4 5 4 3 3 3 3 3 4 4 5 5 5 5 5 4 5 5 6 6 6 7 7 8 9 9 10 10 10 10 10
3 3 3 3 3 4 4 5 4 4 5 5 5 4 4 4 4 4 4 4 5 5 5 5 5 6 6 6 6 6 6 5 6 6 6 7 7 8 9 9 9 9 9 9
3 3 3 3 3 4 4 5 4 4 4 5 5 4 4 4 4 4 4 5 5 6 6 6 5 5 6 6 6 6 6 6 5 5 6 7 7 7 7 7 7 7 8 8
2 3 3 3 3 3 4 5 4 4 4 4 4 4 4 4 4 4 4 4 5 5 6 5 5 4 4 5 5 5 5 5 5 5 5 6 6 6 6 6 6 6 6 6
2 3 3 3 3 3 4 4 4 4 4 4 4 4 4 4 4 4 3 3 4 4 5 5 5 4 4 4 4 4 4 4 5 5 5 4 4 4 4 4 4 4 4 5
2 3 3 3 3 3 4 4 4 4 3 3 4 4 4 4 4 4 3 3 4 4 4 4 4 4 4 4 4 4 4 4 3 3 3 2 2 2 2 2 2 2 2 3
2 3 3 3 3 3 4 4 4 3 2 3 3 3 3 3 3 3 3 3 3 3 4 4 4 4 4 4 4 3 3 3 3 2 2 1 1 1 1 1 1 1 1 1
2 3 3 3 3 3 3 3 3 3 2 2 2 2 2 2 2 2 3 3 3 3 3 3 3 3 3 3 3 2 2 2 2 2 1 1 1 1 2 2 2 2 3 3
2 2 2 2 3 3 3 3 3 3 2 2 2 2 2 2 3 3 3 3 3 3 3 3 3 3 3 3 3 3 4 4 3 3 3 4 4 4 4 4 4 4 4 5
2 2 2 2 2 2 3 3 3 3 3 3 3 3 3 3 3 4 4 4 4 4 4 4 4 4 4 4 4 5 5 5 5 5 5 6 6 6 6 6 6 6 7 7
3 3 2 2 2 2 2 2 2 2 3 3 4 4 4 4 4 4 4 4 4 4 4 4 4 4 4 5 5 5 6 6 6 7 7 7 8 8 9 9 9 9 10 11
4 4 3 3 3 3 3 3 3 3 3 4 4 4 5 5 5 6 6 5 5 5 5 5 6 6 6 6 7 7 8 8 8 9 9 9 10 11 11 12 12 13 13 14
5 5 4 4 4 5 5 4 4 5 5 5 5 5 6 6 6 7 7 7 7 8 8 8 8 8 9 9 9 10 10 11 11 11 12 12 13 13 14 15 15 16 16 17
6 6 6 5 5 6 6 6 6 6 6 7 7 7 7 8 8 8 8 9 9 10 10 10 10 10 11 11 12 12 13 14 14 14 14 15 16 16 17 17 18 18 18 18

GEFSNGP_500_meanwind_162.txt.gz
Wind_Speed
12 11 11 12 12 14 15 16 17 19 20 19 19 19 19 17 19 19 20 20 21 21 21 22 22 22 22 23 22 21 21 20 20 20 20 19 18 17 17 17 17 16 16 16
11 12 12 12 13 15 15 16 17 19 20 19 19 19 18 18 19 19 19 20 21 22 21 21 21 21 21 20 20 19 19 18 18 18 17 17 16 16 16 16 15 15 15 15
10 10 12 13 13 14 16 16 17 19 19 19 18 18 18 17 18 19 19 20 20 21 20 19 19 19 19 19 18 18 18 17 17 16 15 15 14 14 14 15 14 14 14 14
10 9 11 12 12 13 15 17 17 19 19 17 18 18 18 18 18 18 17 18 19 19 18 17 17 17 18 18 17 17 16 15 15 14 14 14 13 13 13 14 12 11 12 13
9 10 11 11 11 12 14 16 16 17 15 15 17 17 17 18 17 16 17 17 17 17 16 17 17 16 16 16 16 16 14 13 13 12 12 12 11 11 11 11 11 10 11 12
9 10 11 11 12 13 14 15 14 15 14 15 16 17 17 17 17 16 17 16 16 16 15 15 15 15 14 14 14 13 12 12 11 11 11 10 10 10 9 9 10 9 10 9
9 11 12 10 12 13 13 14 13 13 13 14 15 16 16 16 15 15 15 15 14 14 14 14 13 13 12 11 11 11 11 10 10 9 9 9 8 8 8 8 8 8 9 9
11 12 11 11 13 13 13 13 13 13 14 14 14 15 15 14 14 13 13 13 12 12 11 11 11 10 8 9 9 9 9 8 7 7 8 8 7 7 8 8 8 7 9 9
10 11 11 11 11 11 11 11 12 12 12 13 13 14 13 12 13 12 12 10 9 9 9 9 9 7 6 7 8 7 6 6 6 6 7 8 7 7 7 8 8 8 9 9
10 10 10 10 10 10 9 10 10 10 11 12 12 11 11 11 11 10 9 8 8 7 7 7 7 7 7 7 6 6 5 5 5 6 7 7 7 7 7 8 7 8 8 9
9 9 9 9 9 9 9 9 9 10 10 10 10 10 9 9 9 8 8 7 6 6 6 6 6 7 6 5 5 5 5 5 5 5 6 7 7 7 7 7 8 8 8 9
8 8 9 8 8 8 8 8 8 8 9 9 9 8 8 7 7 7 7 6 5 5 6 6 6 6 5 5 4 4 4 4 4 5 6 6 7 8 8 8 8 8 8 9
7 7 7 7 7 7 7 7 7 7 7 7 6 6 6 6 6 6 5 4 4 4 5 4 4 4 4 4 4 4 4 4 4 5 6 7 7 7 8 9 9 8 9 9
7 6 6 6 6 6 6 6 6 6 5 5 5 4 5 6 5 4 4 4 4 4 4 4 3 3 3 3 3 3 3 3 3 4 5 6 7 7 7 7 7 8 8 9
5 5 5 5 5 5 5 5 5 4 4 4 4 4 5 5 5 4 4 5 4 4 5 4 3 3 3 3 3 3 3 3 3 4 5 6 6 7 7 6 6 6 6 7
3 3 3 4 4 4 4 4 4 3 3 3 4 4 5 5 5 5 5 5 5 5 5 4 4 4 3 3 3 3 3 3 3 3 4 5 5 5 6 5 5 6 6 6
2 2 3 3 3 3 4 4 3 3 3 3 3 4 4 4 5 5 5 5 6 6 5 5 4 4 4 4 4 3 3 3 3 3 4 4 5 4 4 4 4 5 5 5
1 1 3 3 3 3 4 4 4 3 4 3 3 4 4 4 4 4 4 5 6 6 6 5 5 5 4 4 4 4 3 3 3 4 4 4 4 4 4 4 4 4 4 4
1 2 2 3 3 3 3 3 3 3 3 3 3 3 3 3 3 4 4 4 5 5 5 5 4 4 4 4 4 4 4 4 4 5 5 5 4 4 5 5 5 5 5 5
2 2 2 3 3 3 2 3 3 3 3 3 3 3 3 3 3 3 4 5 5 5 5 4 4 4 4 4 4 4 4 5 5 5 5 5 5 5 6 6 7 7 7 7
3 3 3 3 3 3 2 3 3 3 3 3 3 3 3 3 3 4 4 5 5 5 5 5 5 5 5 5 4 5 5 5 5 5 6 6 6 7 7 8 8 9 9 9
4 4 4 4 3 3 2 2 3 3 3 3 3 3 3 4 4 4 5 6 6 5 5 5 5 5 5 5 5 6 6 6 6 7 7 8 8 9 9 10 11 11 12 12
4 4 4 4 3 3 2 2 3 3 3 3 3 3 4 4 4 5 5 6 6 6 6 5 6 6 6 7 7 8 8 8 8 9 9 9 10 11 11 12 13 13 14 14
5 5 4 3 3 3 3 3 3 3 3 4 4 4 4 5 5 5 6 7 7 7 7 7 7 7 8 8 9 9 10 10 10 11 11 12 12 13 14 14 15 15 16 16
6 5 4 4 3 3 3 3 4 4 5 5 5 5 6 6 6 6 7 8 8 8 8 8 9 9 10 10 11 11 12 12 13 13 14 14 15 15 16 17 17 18 19 20
7 6 6 5 5 5 5 5 5 5 6 6 6 6 6 7 7 8 8 9 9 9 9 10 10 11 11 12 13 13 14 14 15 15 16 17 17 18 18 19 20 21 22 22
8 8 7 7 6 6 6 6 6 6 7 7 7 8 8 9 9 10 10 11 11 11 11 12 12 13 13 14 15 15 16 16 17 18 18 19 20 20 21 22 22 23 24 24

GEFSNGP_500_meanwind_168.txt.gz
Wind_Speed
12 12 13 14 14 15 15 16 17 16 16 15 16 16 16 17 17 17 18 17 17 17 18 19 19 19 19 18 19 19 18 17 17 17 17 17 16 15 15 15 16 16 16 16
12 12 12 13 13 14 15 16 16 16 15 15 16 16 16 15 16 17 17 17 17 16 16 17 17 18 18 18 18 16 15 16 16 16 15 15 15 15 14 14 14 14 13 13
11 11 11 12 11 13 14 15 15 14 14 15 16 16 16 15 16 16 17 17 17 16 16 15 15 15 16 17 15 14 13 14 15 15 14 14 14 13 13 12 12 12 12 11
11 11 12 11 10 12 13 14 14 14 14 14 15 15 15 16 16 17 17 17 16 14 13 13 13 14 14 14 12 12 11 12 13 13 12 11 11 11 10 10 10 10 10 11
12 12 12 12 12 12 13 14 13 13 13 13 14 14 15 15 15 15 15 15 13 12 12 12 12 12 12 11 11 10 10 11 11 10 10 9 10 10 10 9 8 8 9 10
11 11 12 12 12 13 13 13 12 12 12 13 14 14 14 14 14 12 13 12 11 10 10 10 10 10 10 10 10 10 9 10 10 9 9 9 9 9 9 8 8 8 8 8
11 11 11 11 12 12 13 12 13 13 13 14 14 14 14 13 12 12 12 12 11 10 9 9 8 9 9 9 9 9 9 8 8 9 8 8 8 8 8 8 7 7 7 8
10 10 10 10 10 11 12 12 12 12 11 12 12 12 12 11 10 11 10 10 9 8 8 8 7 7 6 6 7 7 7 7 7 7 7 7 7 7 7 7 7 7 8 8
9 8 8 8 9 9 10 11 11 10 10 11 11 10 9 9 9 8 8 7 6 6 6 6 6 5 5 5 5 5 5 6 6 5 6 6 6 5 7 7 7 7 7 8
7 7 8 7 8 9 10 10 10 10 10 10 9 8 7 7 7 7 6 5 5 5 5 5 4 3 4 4 4 4 4 5 5 5 5 5 5 6 6 7 7 7 7 8
6 6 6 6 8 8 9 9 10 9 8 8 7 6 6 7 6 6 5 4 4 4 4 3 3 3 3 3 3 3 4 4 5 5 5 5 5 6 6 7 7 8 8 7
5 5 5 6 7 8 8 8 8 7 7 7 6 5 5 5 5 5 4 3 4 4 3 3 3 2 2 3 3 3 3 4 4 5 5 5 5 6 6 7 7 7 7 7
5 4 4 5 6 6 6 6 6 6 5 5 5 4 4 4 4 3 3 3 3 3 3 3 3 2 3 3 3 3 4 4 5 5 5 5 5 5 6 6 6 6 6 6
2 2 3 4 4 5 5 5 5 5 5 5 4 4 4 4 3 3 3 3 3 3 3 3 3 3 3 3 3 3 4 4 4 4 4 4 4 4 5 6 6 6 6 5
1 2 3 3 3 3 3 4 5 5 5 5 4 4 5 5 4 3 3 4 4 4 4 3 3 3 4 4 4 4 4 4 4 4 4 4 4 4 4 5 5 5 5 4
1 2 3 3 3 3 3 4 4 4 4 4 4 5 5 5 5 4 3 3 4 4 4 4 4 4 4 4 4 4 4 4 4 4 4 4 4 4 5 5 5 5 4 4
1 2 3 3 2 3 3 4 4 4 4 5 4 5 5 5 5 5 4 4 4 4 4 4 4 4 4 4 4 4 4 4 4 4 5 5 5 5 5 6 5 5 5 5
2 2 3 3 2 3 3 4 4 5 5 5 4 4 4 5 5 5 5 5 4 4 4 4 4 4 4 4 4 4 4 4 4 4 5 5 5 6 6 6 6 6 7 7
2 2 2 3 3 3 4 4 4 4 5 5 5 4 4 5 5 5 5 5 5 5 4 4 4 5 4 4 5 5 5 5 5 5 5 6 6 7 7 7 8 8 9 9
1 2 2 2 3 3 3 3 4 4 5 5 5 5 5 5 5 5 5 5 5 5 5 5 5 5 5 5 5 6 6 6 6 6 7 7 8 8 8 9 9 10 10 11
2 2 2 2 3 3 3 3 3 4 5 5 5 5 4 4 4 5 5 5 5 5 5 5 5 5 5 5 6 6 7 7 8 8 8 9 9 9 10 10 11 12 12 13
3 2 2 2 2 2 3 3 3 4 5 5 5 5 5 4 4 4 5 5 5 5 5 5 5 6 6 6 7 7 8 8 9 10 10 11 11 11 11 12 13 13 14 15
3 2 1 2 2 2 2 3 3 4 4 5 5 5 5 4 4 4 5 5 4 5 5 6 6 6 7 7 8 8 9 10 11 11 12 13 13 13 14 15 15 16 17 17
4 3 2 1 1 1 1 2 2 3 3 4 4 4 4 4 4 5 5 5 5 6 6 7 7 7 8 9 9 10 11 12 13 13 14 15 15 16 17 17 18 19 19 20
4 3 2 1 0 1 1 1 1 2 3 4 4 4 4 4 5 5 5 6 6 7 7 8 8 9 9 10 11 12 13 14 15 16 16 17 18 19 19 20 20 21 21 22
5 4 3 2 1 0 0 1 1 2 2 3 4 4 4 5 5 5 6 6 7 8 8 9 10 10 11 12 13 14 15 16 17 18 18 19 20 21 21 22 22 23 23 24
6 5 4 3 3 2 1 1 2 2 2 3 4 4 5 6 6 7 7 8 8 9 10 10 11 12 13 14 15 16 17 18 19 20 20 21 22 23 23 24 24 25 26 26

GEFSNGP_500_meanwind_174.txt.gz
Wind_Speed
14 15 15 14 15 16 16 17 19 19 18 17 17 17 16 16 15 15 16 16 16 16 16 16 16 17 17 17 16 16 17 17 18 18 18 17 17 17 17 17 16 16 16 16
14 15 15 14 14 15 16 16 17 17 17 16 17 16 15 15 15 15 15 15 15 15 16 16 15 16 15 15 15 15 15 16 16 16 16 16 16 16 16 15 14 14 15 15
14 15 15 15 14 14 15 15 15 16 15 15 16 15 15 14 15 16 15 15 15 15 16 16 16 15 14 14 14 14 14 14 14 14 15 15 15 15 14 14 14 14 14 14
15 15 16 14 14 15 15 14 15 15 15 15 15 15 14 14 14 14 14 14 14 15 15 14 14 13 13 12 12 11 11 12 12 12 13 13 13 13 13 13 13 13 13 13
16 16 15 14 15 15 15 14 14 15 15 15 14 14 13 13 13 13 12 12 12 13 12 11 11 11 11 10 10 10 10 10 11 11 11 11 11 11 11 11 12 12 12 12
16 16 16 14 14 14 14 14 14 14 14 13 12 12 12 12 12 11 10 10 10 10 10 10 10 9 8 8 8 8 9 9 8 9 9 10 10 11 11 12 12 12 11 11
15 15 14 13 12 13 14 13 13 13 13 12 12 11 11 11 11 10 9 9 9 8 8 9 9 8 7 7 7 8 7 7 7 7 8 9 10 10 10 11 11 11 11 10
14 14 13 11 11 12 12 12 12 12 12 12 11 11 11 10 10 9 8 8 7 7 7 7 7 6 6 6 6 6 6 6 6 7 8 9 9 9 10 10 10 10 10 10
13 12 12 11 11 11 11 11 11 11 11 11 10 10 10 9 9 8 7 7 6 6 6 6 6 6 4 3 4 5 6 6 6 7 7 8 9 9 9 9 9 9 9 9
12 11 10 10 10 10 10 9 9 9 9 9 8 8 8 8 8 7 6 5 5 5 5 5 5 4 3 3 3 5 4 5 5 6 7 8 8 8 8 8 9 9 9 10
10 10 10 9 9 8 8 7 7 7 7 7 7 7 7 6 5 5 5 4 4 4 3 3 3 3 2 2 3 3 3 4 5 6 7 7 8 8 8 9 9 9 9 9
9 9 9 8 7 6 6 6 6 6 6 6 6 5 4 4 3 3 3 3 2 2 1 2 3 2 2 2 2 3 3 4 5 7 7 7 7 8 8 8 8 8 8 9
8 8 7 5 5 5 5 5 5 5 5 4 4 4 3 3 2 2 2 1 1 1 1 1 2 2 2 2 3 3 4 5 5 6 7 7 7 8 8 8 8 8 8 8
7 7 5 4 4 5 5 5 4 3 3 3 3 3 3 2 3 2 1 1 2 2 1 1 1 2 3 3 4 4 4 4 5 6 7 7 8 8 9 9 9 9 9 9
6 6 5 4 3 3 4 3 3 2 3 2 2 2 3 3 3 2 2 2 2 2 2 1 2 2 2 3 4 4 5 5 5 6 7 7 8 8 9 9 10 9 10 10
6 5 4 3 2 2 2 2 1 1 1 2 2 3 3 3 3 3 3 3 3 3 2 2 2 2 2 2 3 4 5 6 6 7 7 8 9 9 10 10 10 11 11 11
5 4 3 3 2 1 1 0 0 1 2 2 2 3 3 3 3 3 3 3 4 4 3 3 3 3 3 3 4 5 5 6 7 8 8 8 9 10 11 11 11 12 12 12
5 4 3 2 2 1 1 1 2 2 2 2 3 3 3 4 4 4 4 4 4 4 4 4 4 4 4 4 4 5 6 6 7 8 9 9 10 10 11 12 12 13 14 14
5 4 3 3 2 2 2 2 3 3 3 3 3 3 4 4 4 4 4 4 4 4 4 4 4 5 5 5 5 6 6 7 8 9 9 10 11 11 12 13 13 14 15 15
6 5 4 4 3 3 3 4 4 5 4 4 4 4 4 4 4 4 4 5 5 5 5 4 4 4 5 6 6 6 7 8 9 9 10 11 12 13 14 14 15 15 16 17
6 6 5 4 4 4 4 4 5 5 5 4 4 4 4 4 4 4 5 5 5 5 5 5 5 5 6 6 7 8 8 9 10 11 12 13 14 14 15 16 16 17 18 19
7 6 6 5 4 4 4 4 4 4 4 4 4 4 4 4 4 4 4 5 5 5 5 5 5 6 6 7 8 9 10 11 11 12 14 15 15 16 17 18 19 20 20 21
8 7 6 6 5 4 4 4 4 4 4 4 3 3 3 3 3 3 3 4 4 5 5 6 6 6 7 8 9 10 11 12 13 14 16 16 17 18 19 20 21 21 22 23
8 8 7 6 6 5 4 4 3 3 3 3 3 3 2 2 2 3 3 3 4 4 5 6 7 8 8 9 10 11 12 13 15 16 17 18 19 20 21 22 22 23 23 24
10 9 8 7 6 5 4 3 2 2 2 2 2 2 2 2 2 3 3 3 4 5 6 7 8 10 11 11 12 13 14 15 17 18 19 20 21 22 23 24 24 25 25 26
10 9 8 7 6 5 3 2 2 1 1 1 1 2 2 2 3 3 3 4 5 7 8 9 10 11 12 13 14 15 16 17 18 19 20 22 23 24 25 25 26 26 27 28
11 9 8 7 6 5 4 2 1 1 0 1 2 2 3 3 4 4 5 6 7 8 10 11 11 12 13 14 15 16 18 19 20 21 22 23 24 26 26 27 28 28 29 30

GEFSNGP_500_meanwind_180.txt.gz
Wind_Speed
13 13 14 15 15 15 14 13 14 14 15 16 16 16 16 16 15 15 15 14 14 15 15 16 16 15 16 15 14 14 14 15 15 16 16 17 17 16 16 17 17 17 17 17
12 13 13 14 14 14 14 14 14 15 15 15 16 16 16 15 14 13 13 14 15 15 16 16 15 15 14 14 13 14 14 15 14 14 15 15 16 15 15 14 14 14 15 16
12 13 13 14 14 14 15 15 15 15 15 15 15 14 14 14 14 13 13 13 14 14 14 14 14 13 13 13 13 13 13 13 13 14 14 13 13 14 13 12 12 13 14 15
13 13 14 14 14 13 13 14 14 14 13 13 13 12 12 13 13 12 12 12 12 12 12 12 12 13 13 12 12 12 12 12 12 12 12 11 11 11 11 11 12 13 14 14
13 13 14 14 13 13 13 12 12 13 12 12 12 12 11 11 11 11 11 10 10 10 10 10 10 11 10 10 10 10 10 10 10 11 11 11 10 10 10 11 12 13 13 13
13 13 13 13 12 12 11 11 11 12 12 11 10 10 10 10 10 10 9 9 9 9 9 9 9 9 9 8 8 8 8 8 8 9 10 10 10 10 10 10 11 12 12 13
13 14 13 12 11 11 11 11 11 11 11 10 10 10 10 9 9 9 9 8 8 8 8 8 8 7 7 7 7 7 7 7 7 8 8 8 9 9 10 10 11 11 12 12
13 14 14 12 11 10 10 10 11 11 10 10 9 9 9 8 8 8 8 8 8 8 8 7 7 6 6 6 6 6 6 7 7 7 7 8 8 8 9 10 11 11 12 12
13 13 13 11 11 10 10 10 10 9 9 9 9 9 8 8 7 7 6 6 6 6 6 7 6 6 5 5 5 4 5 5 5 6 6 6 7 8 9 10 11 11 11 11
13 12 12 11 11 11 10 9 9 8 8 8 8 8 7 6 6 6 5 5 5 5 5 5 4 4 3 3 3 3 3 3 4 4 4 6 7 8 9 10 10 11 11 10
12 12 11 10 10 9 9 8 7 7 7 7 7 6 6 6 5 5 5 5 4 4 3 4 4 3 3 3 3 3 3 3 3 4 5 6 7 8 9 9 10 10 10 10
12 11 10 9 8 8 7 7 6 6 7 6 5 5 5 5 4 4 4 3 3 3 3 3 3 3 4 3 2 2 1 2 3 3 4 6 7 8 9 10 10 11 11 11
11 11 9 8 8 6 6 5 5 5 5 4 4 4 4 3 4 3 3 1 1 1 2 2 2 2 2 2 2 2 2 2 2 3 5 6 7 8 9 10 10 10 11 11
10 9 9 8 7 6 5 5 4 4 4 4 4 3 3 3 3 2 1 1 1 1 1 1 1 1 1 0 1 1 1 2 3 4 5 7 8 9 10 10 10 10 11 11
9 8 8 7 6 5 5 4 4 4 4 3 3 2 2 1 1 1 1 1 1 1 1 1 1 1 1 0 0 0 1 2 3 4 6 7 8 9 10 10 10 10 11 12
8 8 7 7 6 5 4 4 4 3 3 2 2 2 2 2 1 1 1 1 1 1 1 1 1 1 1 1 1 0 1 2 3 5 6 8 9 10 10 11 11 11 12 13
8 8 8 7 6 5 4 4 4 3 2 2 2 2 2 2 1 1 1 2 2 2 2 1 1 1 1 1 1 1 2 3 4 6 7 8 9 11 11 12 12 13 14 15
8 8 8 7 6 5 4 3 3 3 3 3 2 2 2 2 2 2 3 3 3 3 2 1 1 1 1 1 0 1 2 4 6 7 8 9 10 11 12 13 13 14 16 17
9 8 7 6 5 5 4 3 3 3 4 3 3 3 3 3 3 4 4 4 4 3 3 2 2 2 2 2 1 2 3 5 7 8 9 10 12 13 14 14 15 16 17 18
10 9 8 6 6 5 4 4 4 4 5 5 5 5 5 4 4 4 5 4 4 4 3 4 4 3 3 2 2 3 5 6 8 9 10 12 13 14 15 16 17 18 19 20
10 9 8 7 6 6 6 5 5 6 6 6 6 6 5 5 5 5 4 4 4 4 4 4 3 3 3 3 4 5 7 8 9 10 12 13 14 15 16 18 19 20 20 21
11 10 9 8 7 7 7 6 6 6 6 6 6 6 5 5 5 5 4 4 4 4 4 4 3 3 4 5 6 7 8 10 11 12 13 14 15 17 18 19 20 21 21 22
12 11 10 9 8 8 7 7 6 6 6 5 5 5 5 5 4 4 4 3 3 3 3 3 4 4 5 6 8 9 10 11 12 13 14 16 17 19 19 20 21 22 23 24
13 12 11 9 8 7 7 6 6 6 5 5 5 5 4 4 3 3 3 3 3 3 3 4 5 6 7 8 9 10 11 13 14 15 16 18 19 20 21 22 23 24 25 27
13 12 11 9 8 7 7 7 6 5 5 5 5 4 3 2 2 2 2 2 2 3 4 5 6 7 8 9 10 12 13 15 16 17 18 19 21 22 23 24 25 26 28 29
14 13 11 10 9 8 7 7 6 5 5 4 3 3 2 2 1 0 1 2 3 4 5 6 8 9 10 11 12 14 15 16 18 19 20 21 22 24 25 26 27 28 30 31
15 13 12 11 10 9 8 7 6 5 4 3 3 2 2 2 1 1 2 3 4 5 7 8 10 11 12 13 15 16 17 18 19 20 21 23 25 26 27 28 29 30 31 33

GEFSNGP_500_meanwind_186.txt.gz
Wind_Speed
14 16 17 14 14 15 17 17 18 19 20 19 18 18 18 18 18 19 20 19 19 18 18 18 17 16 16 16 16 16 16 16 16 16 16 15 15 15 15 17 18 18 19 19
15 14 15 15 15 15 16 17 17 18 20 19 19 19 20 19 19 19 18 18 18 17 17 17 16 16 15 15 15 15 15 15 15 15 15 15 14 14 15 16 16 17 17 18
14 13 14 15 14 16 16 16 17 18 19 18 19 17 18 18 17 17 17 16 16 17 16 16 16 15 15 15 15 15 14 14 13 13 13 13 14 14 14 15 15 16 17 17
13 14 15 14 14 14 15 15 17 18 18 17 16 16 16 16 16 16 16 16 16 16 16 16 15 14 14 14 14 14 13 13 12 12 12 13 13 13 14 15 15 16 16 16
14 15 15 15 16 15 15 15 16 17 17 16 15 16 16 14 14 14 14 15 14 14 15 15 14 14 13 13 13 13 12 11 11 11 11 12 12 13 14 14 15 15 15 16
15 16 15 13 15 16 15 15 16 16 15 15 14 15 15 14 14 13 13 12 12 12 12 13 12 12 11 11 11 10 10 10 9 10 10 11 11 12 12 13 14 14 14 14
16 16 15 14 14 14 15 16 15 15 14 14 14 14 13 14 14 13 12 12 11 11 11 11 10 11 10 9 9 8 8 9 9 9 9 9 10 11 12 13 14 14 13 13
16 16 14 14 14 14 15 15 13 13 13 13 13 13 12 13 13 12 12 11 10 11 11 10 10 10 9 8 7 8 8 8 8 7 8 8 9 11 12 13 14 14 13 13
17 16 15 13 14 14 14 14 12 12 12 12 12 12 11 11 12 11 11 10 10 10 10 9 8 8 7 7 6 6 7 6 6 6 7 7 9 10 12 13 13 13 13 14
16 15 15 14 14 15 14 14 12 11 11 11 11 10 9 10 9 9 9 8 8 8 7 7 6 6 6 6 5 5 5 6 6 6 7 8 9 11 12 12 13 14 14 14
17 16 14 13 14 14 13 12 11 10 10 10 10 9 9 8 7 7 6 6 6 6 6 5 5 5 5 5 5 4 5 6 6 6 7 9 10 11 12 13 13 14 14 14
17 16 13 13 13 12 11 10 10 10 9 9 9 9 8 7 6 6 5 5 5 5 4 3 4 4 4 4 4 4 5 5 6 7 8 9 10 12 12 12 13 14 14 15
15 15 13 11 11 11 10 10 10 9 9 8 8 7 7 6 5 5 5 4 3 3 3 3 4 4 3 3 3 4 4 5 7 8 9 10 11 12 12 12 13 14 15 16
14 13 11 10 10 10 9 10 9 8 8 7 7 6 6 5 4 4 4 3 3 3 3 4 4 3 2 3 3 3 5 6 7 8 9 10 11 12 12 13 13 14 15 17
14 13 12 11 10 9 9 9 9 8 7 6 6 6 5 4 3 3 3 3 3 3 3 4 3 3 2 2 2 4 5 7 8 9 9 10 11 12 13 14 15 15 16 17
12 12 11 10 9 9 8 7 8 8 7 6 5 4 4 3 3 3 3 3 3 3 3 3 3 2 2 2 3 4 5 6 8 9 9 10 11 12 13 14 16 16 17 18
12 11 10 10 9 8 8 7 8 7 6 5 4 3 3 3 3 3 2 2 2 2 3 3 3 2 2 3 3 4 5 6 8 8 9 10 12 13 14 15 16 18 19 20
10 10 10 9 9 8 7 6 6 5 5 4 4 3 2 2 2 1 1 2 2 2 2 2 2 3 3 3 3 4 6 7 8 9 10 11 12 14 15 16 18 19 20 21
10 10 10 9 9 7 6 5 5 5 4 4 3 3 2 2 1 1 0 1 2 2 2 2 2 3 3 3 4 5 6 7 9 10 11 13 14 15 17 18 20 21 21 22
9 9 9 9 8 7 6 5 5 5 4 3 3 2 2 2 1 1 0 1 2 2 3 3 3 3 4 4 4 5 7 8 10 11 12 14 15 16 18 19 21 22 23 24
10 10 9 8 7 7 6 6 5 4 4 3 3 3 2 2 2 2 1 1 2 2 3 3 4 4 4 4 5 6 8 9 11 12 13 15 16 18 19 21 22 24 25 26
11 11 10 9 8 7 6 6 6 5 4 4 4 3 3 3 3 2 1 2 2 2 3 3 3 4 5 5 6 8 9 11 12 13 15 16 17 19 20 22 24 25 26 27
11 11 11 10 9 8 7 7 6 6 5 4 4 4 4 3 3 2 2 2 2 2 3 3 3 4 5 6 7 9 11 12 14 15 16 17 19 20 22 24 25 26 28 29
12 12 12 11 10 9 8 7 7 6 5 5 4 4 3 3 3 3 3 3 3 2 3 3 4 5 6 8 9 11 12 13 14 16 17 19 20 22 24 26 27 28 29 29
14 13 12 12 11 10 9 8 7 6 5 5 4 4 3 3 3 3 3 3 3 4 4 4 5 6 7 9 10 11 13 14 16 17 19 21 23 24 26 27 28 29 30 31
15 14 13 12 11 10 9 8 7 6 6 5 4 3 3 2 2 2 2 3 3 4 5 5 6 7 9 10 11 12 14 15 17 19 20 22 24 26 27 28 29 30 31 32
16 15 14 13 12 11 9 8 7 6 6 5 4 3 3 2 1 1 1 2 3 4 5 6 8 9 11 12 13 14 16 17 19 20 22 23 25 27 28 29 30 31 32 33